Location: Unspecified
(0.0000°N, 0.0000°E)
Time: 08:05:43
(UTC+00:00)

Hubble Space Telescope - Pass Details

Date: 24 July 2021
Orbit: 535 x 539 km, 28.5° (Epoch: 31 July)

Event Time Altitude Azimuth Distance (km) Brightness Sun altitude
Exits shadow 05:23:39 14° 245° (WSW) 1,560 2.4 -10.1°
Maximum altitude 05:25:46 19° 208° (SSW) 1,300 2.3 -9.6°
Drops below altitude 10° 05:28:46 10° 162° (SSE) 1,783 3.4 -8.9°
Sets 05:31:32 0° 144° (SE) 2,676 4.6 -8.2°
